| time (UTC) | temp C | wind direction | speed KPH | gust KPH | rain 1hr cm | rain 24hr cm | rain mn cm | humidity % | barometer mb |
| 20260831165109 | 30 | 203 | 1.6 | 1.6 | 0.00 | 0.00 | 0.00 | 79 | 1023.3 |
| 20260831164546 | 31 | 23 | 0.0 | 4.8 | 0.00 | 0.00 | 0.00 | 79 | 1023.3 |
| 20260831163913 | 30 | 23 | 0.0 | 3.2 | 0.00 | 0.00 | 0.00 | 81 | 1023.3 |
| 20260831162735 | 30 | 90 | 0.0 | 0.0 | 0.00 | 0.00 | 0.00 | 80 | 1023.3 |
| 20260831162144 | 31 | 180 | 0.0 | 1.6 | 0.00 | 0.00 | 0.00 | 78 | 1023.3 |
| 20260831161515 | 31 | 0 | 1.6 | 3.2 | 0.00 | 0.00 | 0.00 | 77 | 1023.3 |
| 20260831160937 | 31 | 203 | 3.2 | 6.4 | 0.00 | 0.00 | 0.00 | 77 | 1023.3 |
| 20260831160347 | 32 | 225 | 1.6 | 4.8 | 0.00 | 0.00 | 0.00 | 75 | 1023.3 |
| 20260831155723 | 33 | 180 | 4.8 | 6.4 | 0.00 | 0.00 | 0.00 | 74 | 1023.3 |
| 20260831155135 | 32 | 158 | 6.4 | 6.4 | 0.00 | 0.00 | 0.00 | 77 | 1023.3 |
| 20260831153308 | 30 | 203 | 3.2 | 4.8 | 0.00 | 0.00 | 0.00 | 82 | 1023.3 |
| 20260831152717 | 30 | 225 | 3.2 | 3.2 | 0.00 | 0.00 | 0.00 | 84 | 1023.3 |
| 20260831152111 | 30 | 225 | 3.2 | 3.2 | 0.00 | 0.00 | 0.00 | 81 | 1023.3 |
| 20260831151532 | 31 | 45 | 3.2 | 3.2 | 0.00 | 0.00 | 0.00 | 80 | 1023.3 |
| 20260831150926 | 30 | 45 | 3.2 | 3.2 | 0.00 | 0.00 | 0.00 | 83 | 1023.3 |
| 20260831150317 | 30 | 45 | 3.2 | 3.2 | 0.00 | 0.00 | 0.00 | 83 | 1023.3 |
| 20260831145150 | 28 | 180 | 0.0 | 0.0 | 0.00 | 0.00 | 0.00 | 87 | 1023.3 |
| 20260831144533 | 28 | 135 | 0.0 | 0.0 | 0.00 | 0.00 | 0.00 | 89 | 1023.3 |
| 20260831143922 | 28 | 203 | 1.6 | 1.6 | 0.00 | 0.00 | 0.00 | 88 | 1023.3 |
| 20260831143331 | 28 | 23 | 0.0 | 3.2 | 0.00 | 0.00 | 0.00 | 87 | 1023.3 |
| 20260831142706 | 27 | 158 | 0.0 | 3.2 | 0.00 | 0.00 | 0.00 | 89 | 1023.3 |
| 20260831142118 | 27 | 180 | 1.6 | 1.6 | 0.00 | 0.00 | 0.00 | 91 | 1023.3 |
| 20260831141536 | 27 | 158 | 0.0 | 0.0 | 0.00 | 0.00 | 0.00 | 89 | 1023.3 |
| 20260831140929 | 27 | 270 | 0.0 | 3.2 | 0.00 | 0.00 | 0.00 | 91 | 1023.3 |
| 20260831140339 | 26 | 315 | 1.6 | 3.2 | 0.00 | 0.00 | 0.00 | 93 | 1023.3 |
| 20260831135715 | 26 | 180 | 3.2 | 4.8 | 0.00 | 0.00 | 0.00 | 92 | 1023.3 |
| 20260831135125 | 26 | 45 | 0.0 | 3.2 | 0.00 | 0.00 | 0.00 | 93 | 1023.3 |
| 20260831134535 | 25 | 270 | 0.0 | 0.0 | 0.00 | 0.00 | 0.00 | 99 | 1023.3 |
| 20260831133340 | 23 | 203 | 1.6 | 3.2 | 0.00 | 0.00 | 0.00 | 99 | 1023.3 |
| 20260831132733 | 23 | 225 | 4.8 | 4.8 | 0.00 | 0.00 | 0.00 | 99 | 1023.3 |
| 20260831132121 | 23 | 180 | 4.8 | 4.8 | 0.00 | 0.00 | 0.00 | 99 | 1023.3 |
| 20260831131513 | 23 | 203 | 0.0 | 0.0 | 0.00 | 0.00 | 0.00 | 99 | 1023.3 |
| 20260831130314 | 23 | 225 | 0.0 | 0.0 | 0.00 | 0.00 | 0.00 | 99 | 1023.3 |
| 20260831125714 | 22 | 203 | 0.0 | 0.0 | 0.00 | 0.00 | 0.00 | 99 | 1023.3 |
| 20260831125135 | 22 | 180 | 0.0 | 0.0 | 0.00 | 0.00 | 0.00 | 99 | 1023.3 |
| 20260831123910 | 22 | 203 | 3.2 | 3.2 | 0.00 | 0.00 | 0.00 | 99 | 1023.0 |
| 20260831123350 | 22 | 180 | 0.0 | 3.2 | 0.00 | 0.00 | 0.00 | 99 | 1023.0 |
| 20260831122713 | 21 | 158 | 1.6 | 4.8 | 0.00 | 0.00 | 0.00 | 99 | 1023.0 |
| 20260831122148 | 21 | 225 | 0.0 | 1.6 | 0.00 | 0.00 | 0.00 | 99 | 1023.0 |
| 20260831121520 | 21 | 180 | 0.0 | 3.2 | 0.00 | 0.00 | 0.00 | 99 | 1023.0 |
| 20260831120318 | 21 | 203 | 0.0 | 0.0 | 0.00 | 0.00 | 0.00 | 99 | 1023.0 |
| 20260831115743 | 21 | 270 | 0.0 | 0.0 | 0.00 | 0.00 | 0.00 | 99 | 1023.0 |
| 20260831114546 | 21 | 180 | 0.0 | 0.0 | 0.00 | 0.00 | 0.00 | 99 | 1023.0 |
| 20260831113932 | 21 | 270 | 0.0 | 3.2 | 0.00 | 0.00 | 0.00 | 99 | 1023.0 |
| 20260831113326 | 21 | 180 | 6.4 | 6.4 | 0.00 | 0.00 | 0.00 | 99 | 1023.0 |
| 20260831112739 | 20 | 203 | 0.0 | 0.0 | 0.00 | 0.00 | 0.00 | 99 | 1023.0 |
| 20260831111510 | 20 | 180 | 0.0 | 0.0 | 0.00 | 0.00 | 0.00 | 99 | 1023.0 |
| 20260831110946 | 20 | 270 | 0.0 | 0.0 | 0.00 | 0.00 | 0.00 | 99 | 1022.6 |
| 20260831105122 | 21 | 203 | 0.0 | 0.0 | 0.00 | 0.00 | 0.00 | 99 | 1022.6 |
| 20260831104545 | 21 | 203 | 0.0 | 0.0 | 0.00 | 0.00 | 0.00 | 99 | 1022.6 |
| 20260831103922 | 21 | 225 | 0.0 | 0.0 | 0.00 | 0.00 | 0.00 | 99 | 1022.6 |
| 20260831102731 | 21 | 203 | 0.0 | 0.0 | 0.00 | 0.00 | 0.00 | 99 | 1022.6 |
| 20260831102144 | 21 | 225 | 3.2 | 3.2 | 0.00 | 0.00 | 0.00 | 99 | 1022.6 |
| 20260831100330 | 21 | 23 | 0.0 | 0.0 | 0.00 | 0.00 | 0.00 | 99 | 1022.3 |
| 20260831095726 | 21 | 180 | 0.0 | 1.6 | 0.00 | 0.00 | 0.00 | 99 | 1022.3 |
| 20260831095136 | 21 | 180 | 3.2 | 3.2 | 0.00 | 0.00 | 0.00 | 99 | 1022.3 |
| 20260831094508 | 21 | 203 | 0.0 | 0.0 | 0.00 | 0.00 | 0.00 | 99 | 1022.3 |
| 20260831093319 | 21 | 203 | 0.0 | 3.2 | 0.00 | 0.00 | 0.00 | 99 | 1022.0 |
| 20260831092744 | 21 | 270 | 0.0 | 1.6 | 0.00 | 0.00 | 0.00 | 99 | 1022.3 |
| 20260831091515 | 21 | 203 | 3.2 | 3.2 | 0.00 | 0.00 | 0.00 | 99 | 1022.3 |
| 20260831090932 | 21 | 203 | 0.0 | 3.2 | 0.00 | 0.00 | 0.00 | 99 | 1022.3 |
| 20260831090349 | 21 | 180 | 0.0 | 1.6 | 0.00 | 0.00 | 0.00 | 99 | 1022.0 |
| 20260831085745 | 21 | 203 | 0.0 | 0.0 | 0.00 | 0.00 | 0.00 | 99 | 1022.0 |
| 20260831085143 | 21 | 248 | 0.0 | 0.0 | 0.00 | 0.00 | 0.00 | 99 | 1022.0 |
| 20260831084541 | 21 | 158 | 0.0 | 0.0 | 0.00 | 0.00 | 0.00 | 99 | 1022.0 |
| 20260831083914 | 21 | 248 | 0.0 | 0.0 | 0.00 | 0.00 | 0.00 | 99 | 1022.0 |
| 20260831083350 | 21 | 180 | 0.0 | 3.2 | 0.00 | 0.00 | 0.00 | 99 | 1022.0 |
| 20260831082735 | 21 | 180 | 0.0 | 0.0 | 0.00 | 0.00 | 0.00 | 99 | 1022.0 |
| 20260831082129 | 21 | 180 | 0.0 | 0.0 | 0.00 | 0.00 | 0.00 | 99 | 1022.0 |
| 20260831081521 | 21 | 203 | 0.0 | 0.0 | 0.00 | 0.00 | 0.00 | 99 | 1022.0 |
| 20260831080934 | 21 | 180 | 0.0 | 0.0 | 0.00 | 0.00 | 0.00 | 99 | 1022.0 |
| 20260831080325 | 21 | 203 | 0.0 | 0.0 | 0.00 | 0.00 | 0.00 | 99 | 1022.0 |
| 20260831075739 | 21 | 203 | 0.0 | 0.0 | 0.00 | 0.00 | 0.00 | 99 | 1022.0 |
| 20260831075148 | 21 | 203 | 0.0 | 0.0 | 0.00 | 0.00 | 0.00 | 99 | 1022.0 |
| 20260831073946 | 21 | 180 | 0.0 | 0.0 | 0.00 | 0.00 | 0.00 | 99 | 1021.6 |
| 20260831073349 | 21 | 203 | 0.0 | 0.0 | 0.00 | 0.00 | 0.00 | 99 | 1021.6 |
| 20260831072742 | 21 | 180 | 0.0 | 0.0 | 0.00 | 0.00 | 0.00 | 99 | 1021.6 |
| 20260831072149 | 21 | 315 | 0.0 | 0.0 | 0.00 | 0.00 | 0.00 | 99 | 1021.6 |
| 20260831071523 | 21 | 203 | 0.0 | 0.0 | 0.00 | 0.00 | 0.00 | 99 | 1022.0 |
| 20260831070928 | 21 | 180 | 0.0 | 0.0 | 0.00 | 0.00 | 0.00 | 99 | 1022.0 |
| 20260831070307 | 21 | 203 | 0.0 | 0.0 | 0.00 | 0.00 | 0.00 | 99 | 1022.0 |
| 20260831065736 | 21 | 180 | 0.0 | 0.0 | 0.00 | 0.00 | 0.00 | 99 | 1022.0 |
| 20260831065141 | 21 | 293 | 0.0 | 0.0 | 0.00 | 0.00 | 0.00 | 99 | 1022.0 |
| 20260831064514 | 21 | 248 | 0.0 | 0.0 | 0.00 | 0.00 | 0.00 | 99 | 1022.0 |
| 20260831063335 | 21 | 203 | 0.0 | 0.0 | 0.00 | 0.00 | 0.00 | 99 | 1022.0 |
| 20260831062738 | 21 | 248 | 0.0 | 0.0 | 0.00 | 0.00 | 0.00 | 99 | 1022.0 |
| 20260831061510 | 21 | 203 | 0.0 | 0.0 | 0.00 | 0.00 | 0.00 | 99 | 1022.0 |
| 20260831060929 | 21 | 203 | 0.0 | 0.0 | 0.00 | 0.00 | 0.00 | 99 | 1022.0 |
| 20260831060306 | 21 | 203 | 0.0 | 0.0 | 0.00 | 0.00 | 0.00 | 99 | 1022.3 |
| 20260831055726 | 21 | 203 | 0.0 | 0.0 | 0.00 | 0.00 | 0.00 | 99 | 1022.0 |
| 20260831055110 | 21 | 203 | 0.0 | 0.0 | 0.00 | 0.00 | 0.00 | 99 | 1022.0 |
| 20260831054545 | 22 | 203 | 0.0 | 0.0 | 0.00 | 0.00 | 0.00 | 99 | 1022.0 |
| 20260831053931 | 21 | 203 | 0.0 | 0.0 | 0.00 | 0.00 | 0.00 | 99 | 1022.0 |
| 20260831053334 | 21 | 225 | 0.0 | 0.0 | 0.00 | 0.00 | 0.00 | 99 | 1022.0 |
| 20260831052718 | 21 | 203 | 0.0 | 0.0 | 0.00 | 0.00 | 0.00 | 99 | 1022.3 |
| 20260831052122 | 21 | 225 | 0.0 | 0.0 | 0.00 | 0.00 | 0.00 | 99 | 1022.3 |
| 20260831051546 | 21 | 203 | 0.0 | 0.0 | 0.00 | 0.00 | 0.00 | 99 | 1022.3 |
| 20260831050938 | 21 | 180 | 0.0 | 0.0 | 0.00 | 0.00 | 0.00 | 99 | 1022.3 |
| 20260831050333 | 21 | 180 | 0.0 | 0.0 | 0.00 | 0.00 | 0.00 | 99 | 1022.3 |
| 20260831045726 | 22 | 158 | 0.0 | 0.0 | 0.00 | 0.00 | 0.00 | 99 | 1022.3 |
| 20260831045111 | 22 | 203 | 0.0 | 0.0 | 0.00 | 0.00 | 0.00 | 99 | 1022.3 |
| 20260831044519 | 22 | 203 | 0.0 | 0.0 | 0.00 | 0.00 | 0.00 | 99 | 1022.3 |
| 20260831042732 | 22 | 203 | 0.0 | 0.0 | 0.00 | 0.00 | 0.00 | 99 | 1022.3 |
| 20260831042110 | 22 | 203 | 0.0 | 0.0 | 0.00 | 0.00 | 0.00 | 99 | 1022.3 |
| 20260831041516 | 22 | 203 | 0.0 | 0.0 | 0.00 | 0.00 | 0.00 | 99 | 1022.3 |
| 20260831040912 | 22 | 180 | 0.0 | 0.0 | 0.00 | 0.00 | 0.00 | 99 | 1022.3 |
| 20260831035738 | 22 | 203 | 0.0 | 0.0 | 0.00 | 0.00 | 0.03 | 99 | 1022.3 |
| 20260831035107 | 22 | 180 | 0.0 | 0.0 | 0.00 | 0.00 | 0.03 | 99 | 1022.3 |
| 20260831034519 | 22 | 203 | 0.0 | 0.0 | 0.00 | 0.00 | 0.03 | 99 | 1022.3 |
| 20260831033929 | 22 | 203 | 0.0 | 0.0 | 0.00 | 0.00 | 0.03 | 99 | 1022.3 |
| 20260831033344 | 22 | 203 | 0.0 | 0.0 | 0.00 | 0.00 | 0.03 | 99 | 1022.3 |
| 20260831032730 | 22 | 203 | 0.0 | 0.0 | 0.00 | 0.00 | 0.03 | 99 | 1022.6 |
| 20260831032131 | 22 | 203 | 0.0 | 0.0 | 0.00 | 0.00 | 0.03 | 99 | 1022.3 |
| 20260831031519 | 22 | 225 | 0.0 | 0.0 | 0.00 | 0.00 | 0.03 | 99 | 1022.3 |
| 20260831030941 | 22 | 225 | 0.0 | 1.6 | 0.00 | 0.00 | 0.03 | 99 | 1022.3 |
| 20260831030318 | 22 | 225 | 0.0 | 0.0 | 0.00 | 0.00 | 0.03 | 99 | 1022.3 |
| 20260831025140 | 22 | 203 | 0.0 | 0.0 | 0.00 | 0.00 | 0.03 | 99 | 1022.6 |
| 20260831024541 | 22 | 225 | 0.0 | 0.0 | 0.00 | 0.00 | 0.03 | 99 | 1022.3 |
| 20260831023934 | 22 | 203 | 0.0 | 3.2 | 0.00 | 0.00 | 0.03 | 99 | 1022.3 |
| 20260831023310 | 22 | 203 | 0.0 | 0.0 | 0.00 | 0.00 | 0.03 | 99 | 1022.3 |
| 20260831022713 | 22 | 203 | 3.2 | 3.2 | 0.00 | 0.00 | 0.03 | 99 | 1022.3 |
| 20260831021538 | 22 | 225 | 0.0 | 0.0 | 0.00 | 0.00 | 0.03 | 99 | 1022.3 |
| 20260831020925 | 22 | 203 | 0.0 | 3.2 | 0.00 | 0.00 | 0.03 | 99 | 1022.3 |
| 20260831020343 | 22 | 203 | 0.0 | 3.2 | 0.00 | 0.00 | 0.03 | 99 | 1022.3 |
| 20260831015731 | 22 | 203 | 1.6 | 3.2 | 0.00 | 0.00 | 0.03 | 99 | 1022.3 |
| 20260831015108 | 23 | 180 | 0.0 | 0.0 | 0.00 | 0.00 | 0.03 | 99 | 1022.3 |
| 20260831014532 | 23 | 203 | 0.0 | 0.0 | 0.00 | 0.00 | 0.03 | 99 | 1022.3 |
| 20260831013317 | 23 | 180 | 0.0 | 0.0 | 0.00 | 0.00 | 0.03 | 99 | 1022.3 |
| 20260831012712 | 23 | 180 | 0.0 | 0.0 | 0.00 | 0.00 | 0.03 | 99 | 1022.0 |
| 20260831012134 | 23 | 225 | 3.2 | 3.2 | 0.00 | 0.00 | 0.03 | 99 | 1022.0 |
| 20260831011513 | 23 | 180 | 3.2 | 3.2 | 0.00 | 0.00 | 0.03 | 99 | 1022.0 |
| 20260831010947 | 23 | 203 | 0.0 | 3.2 | 0.00 | 0.00 | 0.03 | 99 | 1022.0 |
| 20260831005714 | 23 | 203 | 1.6 | 6.4 | 0.00 | 0.00 | 0.03 | 99 | 1021.6 |
| 20260831005124 | 23 | 158 | 3.2 | 3.2 | 0.00 | 0.00 | 0.03 | 99 | 1022.0 |
| 20260831004536 | 23 | 180 | 3.2 | 3.2 | 0.00 | 0.00 | 0.03 | 99 | 1021.6 |
| 20260831003948 | 24 | 203 | 1.6 | 4.8 | 0.00 | 0.00 | 0.03 | 99 | 1021.6 |
| 20260831003307 | 24 | 180 | 3.2 | 4.8 | 0.00 | 0.00 | 0.03 | 99 | 1021.6 |
| 20260831002133 | 25 | 225 | 1.6 | 3.2 | 0.00 | 0.00 | 0.03 | 99 | 1021.3 |
| 20260831001541 | 25 | 180 | 1.6 | 1.6 | 0.00 | 0.00 | 0.03 | 99 | 1021.3 |
| 20260831000949 | 25 | 203 | 0.0 | 3.2 | 0.00 | 0.00 | 0.03 | 99 | 1021.3 |
| 20260831000313 | 25 | 180 | 1.6 | 3.2 | 0.00 | 0.00 | 0.03 | 99 | 1020.9 |
| 20260830235711 | 25 | 158 | 3.2 | 3.2 | 0.00 | 0.00 | 0.03 | 99 | 1020.9 |
| 20260830235118 | 26 | 203 | 1.6 | 3.2 | 0.00 | 0.00 | 0.03 | 99 | 1020.9 |
| 20260830234533 | 26 | 203 | 1.6 | 1.6 | 0.00 | 0.00 | 0.03 | 99 | 1020.9 |
| 20260830233948 | 26 | 203 | 3.2 | 3.2 | 0.00 | 0.00 | 0.03 | 99 | 1020.9 |
| 20260830233325 | 26 | 203 | 4.8 | 4.8 | 0.00 | 0.00 | 0.03 | 99 | 1020.9 |
| 20260830232720 | 26 | 203 | 3.2 | 3.2 | 0.00 | 0.00 | 0.03 | 98 | 1020.9 |
| 20260830232140 | 26 | 203 | 4.8 | 4.8 | 0.00 | 0.00 | 0.03 | 97 | 1020.9 |
| 20260830230919 | 27 | 180 | 1.6 | 3.2 | 0.00 | 0.00 | 0.03 | 96 | 1020.9 |
| 20260830225747 | 27 | 135 | 3.2 | 6.4 | 0.00 | 0.00 | 0.03 | 97 | 1020.9 |
| 20260830225112 | 27 | 203 | 3.2 | 4.8 | 0.00 | 0.00 | 0.03 | 98 | 1020.9 |
| 20260830224549 | 27 | 180 | 3.2 | 4.8 | 0.00 | 0.00 | 0.03 | 96 | 1020.9 |
| 20260830223926 | 28 | 203 | 3.2 | 4.8 | 0.00 | 0.00 | 0.03 | 94 | 1020.9 |
| 20260830223313 | 28 | 180 | 3.2 | 6.4 | 0.00 | 0.00 | 0.03 | 93 | 1020.9 |
| 20260830222734 | 28 | 203 | 3.2 | 4.8 | 0.00 | 0.00 | 0.03 | 91 | 1020.9 |
| 20260830222139 | 29 | 158 | 4.8 | 4.8 | 0.00 | 0.00 | 0.03 | 89 | 1020.9 |
| 20260830221521 | 30 | 203 | 4.8 | 4.8 | 0.00 | 0.00 | 0.03 | 88 | 1020.9 |
| 20260830220940 | 30 | 203 | 6.4 | 6.4 | 0.00 | 0.00 | 0.03 | 86 | 1020.9 |
| 20260830220335 | 30 | 180 | 3.2 | 6.4 | 0.00 | 0.00 | 0.03 | 86 | 1020.9 |
| 20260830215123 | 30 | 180 | 4.8 | 6.4 | 0.00 | 0.00 | 0.03 | 84 | 1020.9 |
| 20260830214549 | 30 | 180 | 6.4 | 6.4 | 0.00 | 0.00 | 0.03 | 86 | 1021.3 |
| 20260830213940 | 30 | 203 | 3.2 | 6.4 | 0.00 | 0.00 | 0.03 | 84 | 1021.3 |
| 20260830213322 | 30 | 203 | 3.2 | 6.4 | 0.00 | 0.00 | 0.03 | 85 | 1020.9 |
| 20260830212747 | 30 | 203 | 4.8 | 6.4 | 0.00 | 0.00 | 0.03 | 85 | 1021.3 |
| 20260830211511 | 29 | 203 | 6.4 | 6.4 | 0.00 | 0.00 | 0.03 | 87 | 1021.3 |
| 20260830210931 | 29 | 203 | 4.8 | 6.4 | 0.00 | 0.00 | 0.03 | 85 | 1020.9 |
| 20260830210342 | 29 | 225 | 6.4 | 8.0 | 0.00 | 0.00 | 0.03 | 85 | 1020.9 |
| 20260830205743 | 29 | 158 | 4.8 | 6.4 | 0.00 | 0.00 | 0.03 | 85 | 1020.9 |
| 20260830205138 | 29 | 203 | 6.4 | 6.4 | 0.00 | 0.00 | 0.03 | 86 | 1020.9 |
| 20260830204535 | 28 | 180 | 4.8 | 4.8 | 0.00 | 0.00 | 0.03 | 91 | 1021.3 |
| 20260830203340 | 29 | 270 | 0.0 | 1.6 | 0.00 | 0.00 | 0.03 | 86 | 1021.3 |
| 20260830202715 | 30 | 45 | 3.2 | 3.2 | 0.00 | 0.00 | 0.03 | 83 | 1021.3 |
| 20260830202137 | 30 | 315 | 0.0 | 3.2 | 0.00 | 0.00 | 0.03 | 86 | 1021.3 |
| 20260830201525 | 30 | 225 | 3.2 | 3.2 | 0.00 | 0.00 | 0.03 | 87 | 1021.3 |
| 20260830200319 | 30 | 203 | 4.8 | 4.8 | 0.00 | 0.00 | 0.03 | 84 | 1021.6 |
| 20260830195731 | 30 | 68 | 0.0 | 0.0 | 0.00 | 0.00 | 0.03 | 85 | 1021.6 |
| 20260830195138 | 30 | 203 | 3.2 | 3.2 | 0.00 | 0.00 | 0.03 | 83 | 1021.6 |
| 20260830194541 | 30 | 203 | 4.8 | 4.8 | 0.00 | 0.00 | 0.03 | 83 | 1021.6 |
| 20260830193943 | 31 | 203 | 4.8 | 6.4 | 0.00 | 0.00 | 0.03 | 80 | 1022.0 |
| 20260830192723 | 32 | 203 | 4.8 | 4.8 | 0.00 | 0.00 | 0.03 | 75 | 1022.0 |
| 20260830192122 | 33 | 180 | 3.2 | 3.2 | 0.00 | 0.00 | 0.03 | 71 | 1022.3 |
| 20260830190935 | 31 | 203 | 4.8 | 8.0 | 0.00 | 0.00 | 0.03 | 77 | 1022.3 |
| 20260830190313 | 30 | 225 | 3.2 | 9.7 | 0.00 | 0.00 | 0.03 | 81 | 1022.3 |
| 20260830185707 | 31 | 180 | 9.7 | 11.3 | 0.00 | 0.00 | 0.03 | 78 | 1022.3 |
| 20260830185132 | 32 | 180 | 4.8 | 6.4 | 0.00 | 0.00 | 0.03 | 74 | 1022.3 |
| 20260830184508 | 33 | 23 | 6.4 | 8.0 | 0.00 | 0.00 | 0.03 | 73 | 1022.3 |
| 20260830183934 | 34 | 23 | 9.7 | 12.9 | 0.00 | 0.00 | 0.03 | 67 | 1022.6 |
| 20260830182726 | 33 | 270 | 4.8 | 8.0 | 0.00 | 0.00 | 0.03 | 68 | 1022.6 |
| 20260830182136 | 32 | 225 | 3.2 | 3.2 | 0.00 | 0.00 | 0.03 | 75 | 1023.0 |
| 20260830181538 | 31 | 203 | 3.2 | 3.2 | 0.00 | 0.00 | 0.03 | 79 | 1023.0 |
| 20260830180945 | 33 | 180 | 3.2 | 4.8 | 0.00 | 0.00 | 0.03 | 72 | 1023.0 |
| 20260830180306 | 32 | 225 | 3.2 | 3.2 | 0.00 | 0.00 | 0.03 | 72 | 1023.3 |
| 20260830175715 | 32 | 180 | 4.8 | 6.4 | 0.00 | 0.00 | 0.03 | 72 | 1023.3 |
| 20260830175110 | 31 | 248 | 0.0 | 4.8 | 0.00 | 0.00 | 0.03 | 75 | 1023.3 |
| 20260830174518 | 32 | 270 | 0.0 | 0.0 | 0.00 | 0.00 | 0.03 | 72 | 1023.3 |
| 20260830173949 | 32 | 270 | 1.6 | 3.2 | 0.00 | 0.00 | 0.03 | 73 | 1023.7 |
| 20260830172729 | 31 | 0 | 8.0 | 9.7 | 0.00 | 0.00 | 0.03 | 73 | 1023.7 |
| 20260830172120 | 31 | 338 | 9.7 | 11.3 | 0.00 | 0.00 | 0.03 | 71 | 1023.7 |
| 20260830171536 | 32 | 338 | 4.8 | 6.4 | 0.00 | 0.00 | 0.03 | 71 | 1023.7 |
| 20260830170928 | 33 | 203 | 4.8 | 8.0 | 0.00 | 0.00 | 0.03 | 69 | 1023.7 |